| time (UTC) | temp F | wind direction | speed knots | gust knots | rain 1hr in | rain 24hr in | rain mn in | humidity % | barometer mb |
| 20260906234528 | 62 | 99 | 0.0 | 0.0 | 0.00 | 0.00 | 0.01 | 78 | 1015.8 |
| 20260906233013 | 62 | 28 | 0.0 | 0.0 | 0.00 | 0.00 | 0.01 | 78 | 1015.8 |
| 20260906231510 | 61 | 69 | 0.0 | 0.0 | 0.00 | 0.00 | 0.01 | 80 | 1016.0 |
| 20260906230024 | 60 | 87 | 0.0 | 0.0 | 0.00 | 0.00 | 0.01 | 85 | 1016.1 |
| 20260906224505 | 60 | 87 | 0.0 | 0.0 | 0.00 | 0.00 | 0.01 | 87 | 1016.3 |
| 20260906223003 | 59 | 87 | 0.0 | 0.0 | 0.00 | 0.00 | 0.01 | 88 | 1016.5 |
| 20260906221504 | 59 | 87 | 0.0 | 0.0 | 0.00 | 0.00 | 0.01 | 88 | 1016.5 |
| 20260906220004 | 59 | 101 | 0.0 | 0.0 | 0.00 | 0.00 | 0.01 | 89 | 1016.6 |
| 20260906214501 | 58 | 55 | 0.0 | 0.0 | 0.00 | 0.00 | 0.01 | 89 | 1016.6 |
| 20260906213106 | 58 | 55 | 0.0 | 0.0 | 0.00 | 0.00 | 0.01 | 91 | 1016.7 |
| 20260906211558 | 58 | 54 | 0.0 | 0.0 | 0.00 | 0.00 | 0.01 | 89 | 1016.9 |
| 20260906210057 | 59 | 134 | 0.0 | 0.0 | 0.00 | 0.00 | 0.01 | 87 | 1016.9 |
| 20260906204557 | 60 | 158 | 0.0 | 0.0 | 0.00 | 0.00 | 0.01 | 84 | 1017.0 |
| 20260906203057 | 59 | 82 | 0.0 | 0.0 | 0.00 | 0.00 | 0.01 | 84 | 1017.1 |
| 20260906201554 | 60 | 82 | 0.0 | 0.0 | 0.00 | 0.00 | 0.01 | 83 | 1017.2 |
| 20260906200054 | 60 | 83 | 0.0 | 0.0 | 0.00 | 0.00 | 0.01 | 82 | 1017.3 |
| 20260906194553 | 60 | 155 | 0.0 | 0.0 | 0.00 | 0.00 | 0.01 | 82 | 1017.3 |
| 20260906193051 | 60 | 158 | 0.0 | 0.0 | 0.00 | 0.00 | 0.01 | 81 | 1017.4 |
| 20260906191603 | 60 | 132 | 0.0 | 0.0 | 0.00 | 0.00 | 0.01 | 80 | 1017.6 |
| 20260906190048 | 60 | 59 | 0.0 | 0.0 | 0.00 | 0.00 | 0.01 | 81 | 1017.7 |
| 20260906184556 | 60 | 105 | 0.0 | 0.0 | 0.00 | 0.00 | 0.01 | 80 | 1017.8 |
| 20260906183047 | 60 | 141 | 0.0 | 0.0 | 0.00 | 0.00 | 0.00 | 80 | 1017.8 |
| 20260906181545 | 59 | 91 | 0.0 | 0.0 | 0.00 | 0.00 | 0.00 | 80 | 1017.9 |
| 20260906180104 | 60 | 87 | 0.0 | 0.0 | 0.00 | 0.00 | 0.00 | 80 | 1018.2 |
| 20260906174543 | 60 | 67 | 0.0 | 0.0 | 0.00 | 0.00 | 0.00 | 80 | 1018.2 |
| 20260906173042 | 60 | 59 | 0.0 | 0.0 | 0.00 | 0.00 | 0.00 | 81 | 1018.2 |
| 20260906171543 | 60 | 179 | 0.0 | 0.0 | 0.00 | 0.00 | 0.00 | 81 | 1018.1 |
| 20260906170037 | 59 | 86 | 0.0 | 0.0 | 0.00 | 0.00 | 0.00 | 83 | 1018.1 |
| 20260906164536 | 58 | 88 | 0.0 | 0.0 | 0.00 | 0.00 | 0.00 | 83 | 1018.1 |
| 20260906163031 | 58 | 196 | 0.0 | 0.0 | 0.00 | 0.00 | 0.00 | 87 | 1018.4 |
| 20260906161528 | 57 | 198 | 0.0 | 0.0 | 0.00 | 0.00 | 0.00 | 89 | 1018.4 |
| 20260906160026 | 57 | 200 | 0.0 | 0.0 | 0.00 | 0.00 | 0.00 | 90 | 1018.5 |
| 20260906154528 | 56 | 136 | 0.0 | 0.0 | 0.00 | 0.00 | 0.00 | 91 | 1018.3 |
| 20260906153023 | 56 | 136 | 0.0 | 0.0 | 0.00 | 0.00 | 0.00 | 92 | 1018.6 |
| 20260906151519 | 55 | 136 | 0.0 | 0.0 | 0.00 | 0.00 | 0.00 | 93 | 1018.8 |
| 20260906150017 | 55 | 136 | 0.0 | 0.0 | 0.00 | 0.00 | 0.00 | 94 | 1019.1 |
| 20260906144516 | 54 | 136 | 0.0 | 0.0 | 0.00 | 0.00 | 0.00 | 94 | 1019.1 |
| 20260906143013 | 54 | 136 | 0.0 | 0.0 | 0.00 | 0.00 | 0.00 | 95 | 1019.1 |
| 20260906141513 | 54 | 136 | 0.0 | 0.0 | 0.00 | 0.00 | 0.00 | 95 | 1019.1 |
| 20260906140012 | 54 | 141 | 0.0 | 0.0 | 0.00 | 0.00 | 0.00 | 95 | 1019.2 |
| 20260906134504 | 54 | 141 | 0.0 | 0.0 | 0.00 | 0.00 | 0.00 | 95 | 1019.3 |
| 20260906133003 | 54 | 141 | 0.0 | 0.0 | 0.00 | 0.00 | 0.00 | 95 | 1019.3 |
| 20260906131503 | 53 | 141 | 0.0 | 0.0 | 0.00 | 0.00 | 0.00 | 95 | 1019.7 |
| 20260906130002 | 53 | 141 | 0.0 | 0.0 | 0.00 | 0.00 | 0.00 | 95 | 1019.7 |
| 20260906124501 | 53 | 141 | 0.0 | 0.0 | 0.00 | 0.00 | 0.00 | 95 | 1019.6 |
| 20260906123101 | 53 | 141 | 0.0 | 0.0 | 0.00 | 0.00 | 0.00 | 95 | 1019.3 |
| 20260906121600 | 53 | 141 | 0.0 | 0.0 | 0.00 | 0.00 | 0.00 | 95 | 1019.6 |
| 20260906114558 | 53 | 141 | 0.0 | 0.0 | 0.00 | 0.00 | 0.00 | 95 | 1019.3 |
| 20260906113057 | 53 | 141 | 0.0 | 0.0 | 0.00 | 0.00 | 0.00 | 95 | 1019.5 |
| 20260906111555 | 53 | 141 | 0.0 | 0.0 | 0.00 | 0.00 | 0.00 | 95 | 1019.8 |
| 20260906110053 | 53 | 141 | 0.0 | 0.0 | 0.00 | 0.00 | 0.00 | 95 | 1019.9 |
| 20260906104551 | 53 | 141 | 0.0 | 0.0 | 0.00 | 0.00 | 0.00 | 95 | 1020.1 |
| 20260906103050 | 53 | 141 | 0.0 | 0.0 | 0.00 | 0.00 | 0.00 | 94 | 1020.3 |
| 20260906101555 | 53 | 141 | 0.0 | 0.0 | 0.00 | 0.00 | 0.00 | 94 | 1020.3 |
| 20260906100048 | 53 | 141 | 0.0 | 0.0 | 0.00 | 0.00 | 0.00 | 94 | 1020.3 |
| 20260906094548 | 53 | 141 | 0.0 | 0.0 | 0.00 | 0.00 | 0.00 | 94 | 1020.4 |
| 20260906093056 | 53 | 141 | 0.0 | 0.0 | 0.00 | 0.00 | 0.00 | 94 | 1020.4 |
| 20260906091545 | 53 | 141 | 0.0 | 0.0 | 0.00 | 0.00 | 0.00 | 94 | 1020.5 |
| 20260906090044 | 53 | 141 | 0.0 | 0.0 | 0.00 | 0.00 | 0.00 | 93 | 1020.8 |
| 20260906084550 | 53 | 141 | 0.0 | 0.0 | 0.00 | 0.00 | 0.00 | 93 | 1021.1 |
| 20260906083042 | 53 | 141 | 0.0 | 0.0 | 0.00 | 0.00 | 0.00 | 93 | 1020.9 |
| 20260906081540 | 53 | 141 | 0.0 | 0.0 | 0.00 | 0.00 | 0.00 | 93 | 1021.1 |
| 20260906080051 | 53 | 141 | 0.0 | 0.0 | 0.00 | 0.00 | 0.00 | 93 | 1021.1 |
| 20260906074542 | 53 | 141 | 0.0 | 0.0 | 0.00 | 0.00 | 0.00 | 93 | 1021.1 |
| 20260906073038 | 52 | 141 | 0.0 | 0.0 | 0.00 | 0.00 | 0.00 | 93 | 1021.2 |
| 20260906071536 | 52 | 141 | 0.0 | 0.0 | 0.00 | 0.00 | 0.00 | 93 | 1021.4 |
| 20260906070039 | 53 | 141 | 0.0 | 0.0 | 0.00 | 0.00 | 0.00 | 92 | 1021.4 |
| 20260906064537 | 52 | 141 | 0.0 | 0.0 | 0.00 | 0.00 | 0.00 | 92 | 1021.5 |
| 20260906063035 | 53 | 141 | 0.0 | 0.0 | 0.00 | 0.00 | 0.00 | 92 | 1021.3 |
| 20260906061538 | 53 | 141 | 0.0 | 0.0 | 0.00 | 0.00 | 0.00 | 92 | 1021.4 |
| 20260906060036 | 53 | 141 | 0.0 | 0.0 | 0.00 | 0.00 | 0.00 | 92 | 1021.5 |
| 20260906054531 | 53 | 141 | 0.0 | 0.0 | 0.00 | 0.00 | 0.01 | 92 | 1021.5 |
| 20260906053031 | 53 | 141 | 0.0 | 0.0 | 0.00 | 0.00 | 0.01 | 92 | 1021.5 |
| 20260906051530 | 53 | 141 | 0.0 | 0.0 | 0.00 | 0.00 | 0.01 | 91 | 1021.5 |
| 20260906050029 | 53 | 156 | 0.0 | 0.0 | 0.00 | 0.00 | 0.01 | 91 | 1021.4 |
| 20260906044533 | 53 | 156 | 0.0 | 0.0 | 0.00 | 0.00 | 0.01 | 91 | 1021.3 |
| 20260906043030 | 53 | 156 | 0.0 | 0.0 | 0.00 | 0.00 | 0.01 | 91 | 1021.3 |
| 20260906041538 | 53 | 156 | 0.0 | 0.0 | 0.00 | 0.00 | 0.01 | 91 | 1021.3 |
| 20260906040027 | 53 | 156 | 0.0 | 0.0 | 0.00 | 0.00 | 0.01 | 91 | 1021.4 |
| 20260906034530 | 53 | 156 | 0.0 | 0.0 | 0.00 | 0.00 | 0.01 | 91 | 1021.3 |
| 20260906033030 | 53 | 156 | 0.0 | 0.0 | 0.00 | 0.00 | 0.01 | 90 | 1021.3 |
| 20260906031526 | 53 | 156 | 0.0 | 0.0 | 0.00 | 0.00 | 0.01 | 90 | 1021.4 |
| 20260906030026 | 53 | 156 | 0.0 | 0.0 | 0.00 | 0.00 | 0.01 | 90 | 1021.4 |
| 20260906024524 | 54 | 156 | 0.0 | 0.0 | 0.00 | 0.00 | 0.01 | 92 | 1021.4 |
| 20260906023024 | 54 | 156 | 0.0 | 0.0 | 0.00 | 0.00 | 0.01 | 89 | 1021.2 |
| 20260906021523 | 54 | 156 | 0.0 | 0.0 | 0.00 | 0.00 | 0.01 | 89 | 1021.1 |
| 20260906020022 | 54 | 156 | 0.0 | 0.0 | 0.00 | 0.00 | 0.01 | 89 | 1021.0 |
| 20260906014524 | 54 | 156 | 0.0 | 0.0 | 0.00 | 0.00 | 0.01 | 88 | 1021.0 |
| 20260906013021 | 55 | 156 | 0.0 | 0.0 | 0.00 | 0.00 | 0.01 | 88 | 1020.8 |
| 20260906011520 | 55 | 156 | 0.0 | 0.0 | 0.00 | 0.00 | 0.01 | 87 | 1020.8 |
| 20260906010020 | 55 | 156 | 0.0 | 0.0 | 0.00 | 0.00 | 0.01 | 87 | 1020.8 |
| 20260906004519 | 55 | 156 | 0.0 | 0.0 | 0.00 | 0.00 | 0.01 | 87 | 1020.8 |
| 20260906003019 | 55 | 156 | 0.0 | 0.0 | 0.00 | 0.00 | 0.01 | 86 | 1020.7 |
| 20260906001517 | 55 | 156 | 0.0 | 0.0 | 0.00 | 0.00 | 0.01 | 86 | 1020.7 |
| 20260906000018 | 55 | 156 | 0.0 | 0.0 | 0.00 | 0.00 | 0.01 | 86 | 1020.6 |